Location: Wallasey
(53.4265°N, 3.0662°W)
Time: 22:31:20
(UTC+01:00)

UKube-1 - Visible Passes

Search period start: 24 August 2019 00:00
Search period end: 03 September 2019 00:00
Orbit: 613 x 620 km, 98.4° (Epoch: 24 August)

Date Brightness Start Highest point End Pass type
(mag) Time Alt. Az. Time Alt. Az. Time Alt. Az.
24 Aug ? 03:49:39 10° ESE 03:53:01 23° ENE 03:56:25 10° N visible
24 Aug ? 05:24:29 10° S 05:28:42 56° WSW 05:32:58 10° NNW visible
25 Aug ? 04:05:17 10° ESE 04:09:01 30° ENE 04:12:48 10° N visible
26 Aug ? 04:21:04 10° SE 04:25:03 40° ENE 04:29:06 10° N visible
27 Aug ? 03:05:11 10° ENE 03:06:03 11° NE 03:06:56 10° NE visible
27 Aug ? 04:36:57 10° SE 04:41:08 54° ENE 04:45:21 10° N visible
28 Aug ? 03:19:49 10° E 03:21:58 14° NE 03:24:07 10° NNE visible
28 Aug ? 04:52:57 10° SSE 04:57:14 75° ENE 05:01:34 10° NNW visible
29 Aug ? 03:35:03 10° E 03:37:54 18° NE 03:40:46 10° NNE visible
29 Aug ? 05:09:05 10° SSE 05:13:23 79° WSW 05:17:43 10° NNW visible
30 Aug ? 03:50:31 10° ESE 03:53:52 23° ENE 03:57:15 10° N visible
30 Aug ? 05:25:19 10° S 05:29:33 57° WSW 05:33:49 10° NNW visible
31 Aug ? 04:06:09 10° ESE 04:09:53 29° ENE 04:13:38 10° N visible
31 Aug ? 05:41:42 10° S 05:45:45 41° W 05:49:51 10° NNW visible
01 Sep ? 04:21:55 10° SE 04:25:55 39° ENE 04:29:57 10° N visible
02 Sep ? 03:06:09 10° ENE 03:06:55 10° NE 03:07:41 10° NE visible
02 Sep ? 04:37:48 10° SE 04:41:58 53° ENE 04:46:12 10° N visible
